This demonstration page uses our WeatherBlox Daily Observations layout. Learn more.

Left ArrowRight Arrow

41.12389, -100.76542

Hourly Observations for December 4, 2022

Temp ( °F °C ) Dew Point ( °F °C ) Humidity (%) Winds ( mph kmh ) Pressure ( in mb ) Visibility ( mi km ) Precip ( " mm )
12:53 am 00:53 Clear 16 -8.9 9 -12.8 73 73 NW 6 9 30.25 1025 10 16 0.00 0.00
1:53 am 01:53 Clear 16 -8.9 9 -12.8 73 73 WNW 7 11 30.24 1024 10 16 0.00 0.00
2:53 am 02:53 Clear 15 -9.4 8 -13.3 73 73 WNW 8 13 30.25 1024 10 16 0.00 0.00
3:53 am 03:53 Clear 14 -10 7 -13.9 73 73 NW 9 15 30.25 1024 10 16 0.00 0.00
4:53 am 04:53 Clear 16 -8.9 9 -12.8 73 73 NW 5 7 30.24 1024 10 16 0.00 0.00
5:53 am 05:53 Clear 12 -11.1 6 -14.4 76 76 W 3 6 30.28 1025 10 16 0.00 0.00
6:53 am 06:53 Clear 10 -12.2 5 -15 80 80 NW 7 11 30.30 1026 10 16 0.00 0.00
7:53 am 07:53 Sunny 12 -11.1 7 -13.9 80 80 NNW 7 11 30.29 1026 10 16 0.00 0.00
8:53 am 08:53 Sunny 19 -7.2 12 -11.1 74 74 NW 5 7 30.27 1025 10 16 0.00 0.00
9:53 am 09:53 Sunny 28 -2.2 19 -7.2 68 68 WNW 5 7 30.25 1024 10 16 0.00 0.00
10:53 am 10:53 Sunny 34 1.1 18 -7.8 51 51 VRB 3 6 30.22 1023 10 16 0.00 0.00
11:53 am 11:53 Sunny 40 4.4 17 -8.3 39 39 VRB 3 6 30.17 1022 10 16 0.00 0.00
12:53 pm 12:53 Sunny 46 7.8 18 -7.8 32 32 Calm 30.11 1020 10 16 0.00 0.00
1:53 pm 13:53 Sunny 54 12.2 10 -12.2 17 17 SSW 14 22 30.06 1018 10 16 0.00 0.00
2:53 pm 14:53 Sunny 54 12.2 9 -12.8 16 16 SSW 14 22 30.02 1017 10 16 0.00 0.00
3:53 pm 15:53 Sunny 53 11.7 11 -11.7 18 18 SSW 14 22 30.00 1016 10 16 0.00 0.00
4:53 pm 16:53 Sunny 49 9.4 12 -11.1 22 22 SSW 6 9 29.97 1015 10 16 0.00 0.00
5:53 pm 17:53 Clear 43 6.1 12 -11.1 28 28 S 6 9 29.96 1015 10 16 0.00 0.00
6:53 pm 18:53 Clear 40 4.4 14 -10 34 34 Calm 29.96 1015 10 16 0.00 0.00
7:53 pm 19:53 Mostly Cloudy 37 2.8 15 -9.4 40 40 Calm 29.94 1014 10 16 0.00 0.00
8:53 pm 20:53 Clear 30 -1.1 14 -10 51 51 Calm 29.92 1013 10 16 0.00 0.00
9:53 pm 21:53 Clear 30 -1.1 13 -10.6 48 48 Calm 29.88 1012 10 16 0.00 0.00
10:53 pm 22:53 Partly Cloudy 30 -1.1 17 -8.3 58 58 Calm 29.83 1010 10 16 0.00 0.00
11:53 pm 23:53 Cloudy 36 2.2 18 -7.8 47 47 Calm 29.81 1009 10 16 0.00 0.00

Powered by AerisWeather